H1 CPF 2 NER 2025 4 11 9 101 01 glonass142 H2 2001801 9142 45358 2025 4 11 0 0 0 2025 4 14 23 45 0 900 1 1 0 0 0 1 H9 10 0 60776 0.00000 0 -9902683.664 20899230.935 -10765413.717 10 0 60776 900.00000 0 -10473993.065 21904801.632 -7829452.236 10 0 60776 1800.00000 0 -10772568.363 22635853.681 -4741445.574 10 0 60776 2700.00000 0 -10832938.158 23047810.685 -1561376.327 10 0 60776 3600.00000 0 -10698443.972 23106049.444 1649005.775 10 0 60776 4500.00000 0 -10419171.833 22787442.140 4827383.516 10 0 60776 5400.00000 0 -10049610.103 22081433.948 7912081.377 10 0 60776 6300.00000 0 -9646133.198 20990610.769 10843260.608 10 0 60776 7200.00000 0 -9264417.991 19530733.207 13564076.916 10 0 60776 8100.00000 0 -8956902.264 17730235.257 16021778.475 10 0 60776 9000.00000 0 -8770392.491 15629208.442 18168723.341 10 0 60776 9900.00000 0 -8743921.784 13277913.518 19963297.023 10 0 60776 10800.00000 0 -8906948.104 10734881.301 21370713.160 10 0 60776 11700.00000 0 -9277968.472 8064680.980 22363682.514 10 0 60776 12600.00000 0 -9863607.518 5335447.917 22922938.030 10 0 60776 13500.00000 0 -10658218.890 2616272.553 23037606.421 10 0 60776 14400.00000 0 -11644016.751 -25442.319 22705419.448 10 0 60776 15300.00000 0 -12791732.658 -2526547.447 21932760.936 10 0 60776 16200.00000 0 -14061771.224 -4830530.866 20734548.416 10 0 60776 17100.00000 0 -15405817.319 -6889621.680 19133951.193 10 0 60776 18000.00000 0 -16768828.582 -8666527.378 17161949.569 10 0 60776 18900.00000 0 -18091330.797 -10135733.239 14856742.838 10 0 60776 19800.00000 0 -19311920.754 -11284310.339 12263016.538 10 0 60776 20700.00000 0 -20369872.036 -12112198.924 9431082.264 10 0 60776 21600.00000 0 -21207734.504 -12631955.745 6415905.962 10 0 60776 22500.00000 0 -21773817.928 -12867976.361 3276043.030 10 0 60776 23400.00000 0 -22024454.666 -12855225.524 72500.756 10 0 60776 24300.00000 0 -21925945.210 -12637529.599 -3132449.706 10 0 60776 25200.00000 0 -21456103.500 -12265503.671 -6276488.321 10 0 60776 26100.00000 0 -20605335.633 -11794201.577 -9298463.795 10 0 60776 27000.00000 0 -19377205.282 -11280589.056 -12139589.386 10 0 60776 27900.00000 0 -17788460.816 -10780947.748 -14744592.854 10 0 60776 28800.00000 0 -15868521.944 -10348320.784 -17062797.371 10 0 60776 29700.00000 0 -13658446.619 -10030108.835 -19049111.816 10 0 60776 30600.00000 0 -11209420.833 -9865919.053 -20664910.825 10 0 60776 31500.00000 0 -8580834.127 -9885758.386 -21878787.313 10 0 60776 32400.00000 0 -5838020.886 -10108648.060 -22667162.917 10 0 60776 33300.00000 0 -3049761.412 -10541717.991 -23014744.742 10 0 60776 34200.00000 0 -285646.700 -11179819.555 -22914819.868 10 0 60776 35100.00000 0 2386583.729 -12005673.115 -22369382.281 10 0 60776 36000.00000 0 4903620.607 -12990544.196 -21389090.120 10 0 60776 36900.00000 0 7208973.662 -14095419.843 -19993054.363 10 0 60776 37800.00000 0 9255071.738 -15272635.698 -18208463.271 10 0 60776 38700.00000 0 11004987.911 -16467885.320 -16070050.015 10 0 60776 39600.00000 0 12433718.892 -17622527.178 -13619413.907 10 0 60776 40500.00000 0 13528966.751 -18676092.166 -10904208.504 10 0 60776 41400.00000 0 14291391.825 -19568886.047 -7977212.412 10 0 60776 42300.00000 0 14734327.831 -20244577.100 -4895301.022 10 0 60776 43200.00000 0 14882972.772 -20652659.897 -1718339.335 10 0 60776 44100.00000 0 14773091.206 -20750691.311 1491982.357 10 0 60776 45000.00000 0 14449283.886 -20506204.419 4673347.022 10 0 60776 45900.00000 0 13962898.906 -19898219.621 7764020.115 10 0 60776 46800.00000 0 13369673.351 -18918289.190 10704045.882 10 0 60776 47700.00000 0 12727205.589 -17571031.175 13436407.400 10 0 60776 48600.00000 0 12092365.187 -15874129.952 15908128.042 10 0 60776 49500.00000 0 11518749.751 -13857802.989 18071293.328 10 0 60776 50400.00000 0 11054295.721 -11563755.635 19883973.855 10 0 60776 51300.00000 0 10739143.493 -9043666.874 21311032.107 10 0 60776 52200.00000 0 10603846.313 -6357268.300 22324798.238 10 0 60776 53100.00000 0 10667997.984 -3570095.249 22905602.473 10 0 60776 54000.00000 0 10939336.872 -751002.391 23042154.400 10 0 60776 54900.00000 0 11413363.858 2030454.354 22731762.228 10 0 60776 55800.00000 0 12073490.600 4706662.199 21980387.883 10 0 60776 56700.00000 0 12891712.398 7214513.748 20802536.701 10 0 60776 57600.00000 0 13829778.243 9497781.982 19220983.387 10 0 60776 58500.00000 0 14840809.778 11509210.319 17266338.806 10 0 60776 59400.00000 0 15871302.172 13212231.712 14976465.111 10 0 60776 60300.00000 0 16863423.601 14582245.843 12395749.548 10 0 60776 61200.00000 0 17757517.293 15607401.621 9574250.121 10 0 60776 62100.00000 0 18494701.098 16288852.622 6566728.906 10 0 60776 63000.00000 0 19019455.065 16640475.104 3431591.256 10 0 60776 63900.00000 0 19282087.453 16688060.735 229751.309 10 0 60776 64800.00000 0 19240974.439 16468018.340 -2976554.064 10 0 60776 65700.00000 0 18864477.891 16025639.843 -6124979.433 10 0 60776 66600.00000 0 18132459.049 15413004.127 -9154288.817 10 0 60776 67500.00000 0 17037322.874 14686608.021 -12005553.082 10 0 60776 68400.00000 0 15584547.678 13904825.258 -14623302.655 10 0 60776 69300.00000 0 13792676.431 13125301.613 -16956612.323 10 0 60776 70200.00000 0 11692768.984 12402397.028 -18960096.457 10 0 60776 71100.00000 0 9327337.213 11784783.445 -20594794.908 10 0 60776 72000.00000 0 6748806.947 11313300.305 -21828932.167 10 0 60776 72900.00000 0 4017570.421 11019158.500 -22638535.085 10 0 60776 73800.00000 0 1199710.057 10922568.695 -23007897.377 10 0 60776 74700.00000 0 -1635511.862 11031851.776 -22929882.213 10 0 60776 75600.00000 0 -4418293.522 11343068.753 -22406057.401 10 0 60776 76500.00000 0 -7080954.472 11840185.422 -21446660.903 10 0 60776 77400.00000 0 -9560506.913 12495764.544 -20070397.658 10 0 60776 78300.00000 0 -11801031.132 13272156.071 -18304071.908 10 0 60776 79200.00000 0 -13755757.048 14123134.970 -16182062.257 10 0 60776 80100.00000 0 -15388766.162 14995917.359 -13745649.809 10 0 60776 81000.00000 0 -16676244.111 15833469.716 -11042212.449 10 0 60776 81900.00000 0 -17607232.863 16577013.576 -8124301.019 10 0 60776 82800.00000 0 -18183852.472 17168619.827 -5048615.467 10 0 60776 83700.00000 0 -18420984.617 17553782.951 -1874901.067 10 0 60776 84600.00000 0 -18345432.688 17683866.383 1335213.636 10 0 60776 85500.00000 0 -17994595.117 17518315.598 4519414.231 10 0 60777 0.00000 0 -17414709.065 17026545.450 7615909.460 10 0 60777 900.00000 0 -16658739.136 16189421.649 10564629.809 10 0 60777 1800.00000 0 -15784001.622 15000274.434 13308388.223 10 0 60777 2700.00000 0 -14849623.800 13465400.604 15793986.078 10 0 60777 3600.00000 0 -13913946.162 11604032.894 17973239.139 10 0 60777 4500.00000 0 -13031976.576 9447777.172 19803905.768 10 0 60777 5400.00000 0 -12253003.152 7039540.195 21250499.793 10 0 60777 6300.00000 0 -11618465.673 4431991.688 22284973.033 10 0 60777 7200.00000 0 -11160174.455 1685623.697 22887254.949 10 0 60777 8100.00000 0 -10898950.927 -1133513.363 23045639.608 10 0 60777 9000.00000 0 -10843746.564 -3956305.298 22757012.856 10 0 60777 9900.00000 0 -10991276.997 -6713197.167 22026915.466 10 0 60777 10800.00000 0 -11326186.712 -9336837.292 20869440.851 10 0 60777 11700.00000 0 -11821737.727 -11764633.769 19306968.885 10 0 60777 12600.00000 0 -12440993.840 -13941118.347 17369740.273 10 0 60777 13500.00000 0 -13138451.313 -15820020.314 15095278.818 10 0 60777 14400.00000 0 -13862048.040 -17365964.689 12527671.809 10 0 60777 15300.00000 0 -14555467.153 -18555724.341 9716721.578 10 0 60777 16200.00000 0 -15160638.325 -19378973.999 6716983.905 10 0 60777 17100.00000 0 -15620331.311 -19838514.762 3586711.359 10 0 60777 18000.00000 0 -15880731.918 -19949959.834 386721.950 10 0 60777 18900.00000 0 -15893890.972 -19740894.837 -2820784.924 10 0 60777 19800.00000 0 -15619941.836 -19249548.331 -5973441.780 10 0 60777 20700.00000 0 -15028991.552 -18523028.926 -9009931.404 10 0 60777 21600.00000 0 -14102604.361 -17615203.867 -11871185.777 10 0 60777 22500.00000 0 -12834813.521 -16584309.235 -14501541.466 10 0 60777 23400.00000 0 -11232617.332 -15490393.313 -16849828.216 10 0 60777 24300.00000 0 -9315937.144 -14392701.705 -18870368.986 10 0 60777 25200.00000 0 -7117037.884 -13347115.098 -20523871.575 10 0 60777 26100.00000 0 -4679434.404 -12403748.187 -21778194.312 10 0 60777 27000.00000 0 -2056328.589 -11604811.186 -22608970.971 10 0 60777 27900.00000 0 691358.178 -10982824.019 -23000083.001 10 0 60777 28800.00000 0 3497275.637 -10559258.195 -22943970.192 10 0 60777 29700.00000 0 6292163.406 -10343663.111 -22441774.145 10 0 60777 30600.00000 0 9006493.496 -10333313.016 -21503312.107 10 0 60777 31500.00000 0 11573127.094 -10513388.824 -20146882.001 10 0 60777 32400.00000 0 13929875.622 -10857686.474 -18398902.643 10 0 60777 33300.00000 0 16021860.191 -11329821.268 -16293396.289 10 0 60777 34200.00000 0 17803571.863 -11884876.845 -13871323.656 10 0 60777 35100.00000 0 19240547.827 -12471428.646 -11179784.413 10 0 60777 36000.00000 0 20310594.526 -13033856.005 -8271098.727 10 0 60777 36900.00000 0 21004507.786 -13514844.800 -5201787.883 10 0 60777 37800.00000 0 21326261.075 -13857974.596 -2031473.959 10 0 60777 38700.00000 0 21292655.296 -14010280.650 1178279.847 10 0 60777 39600.00000 0 20932446.128 -13924682.258 4365165.379 10 0 60777 40500.00000 0 20284986.743 -13562174.599 7467338.720 10 0 60777 41400.00000 0 19398444.070 -12893691.314 10424618.772 10 0 60777 42300.00000 0 18327664.402 -11901558.930 13179651.867 10 0 60777 43200.00000 0 17131778.702 -10580481.514 15679019.931 10 0 60777 44100.00000 0 15871648.556 -8938013.620 17874271.081 10 0 60777 45000.00000 0 14607260.067 -6994501.035 19722853.077 10 0 60777 45900.00000 0 13395174.834 -4782490.941 21188932.271 10 0 60777 46800.00000 0 12286144.452 -2345635.122 22244082.855 10 0 60777 47700.00000 0 11322987.929 262869.255 22867833.805 10 0 60777 48600.00000 0 10538820.243 2982237.673 23048063.525 10 0 60777 49500.00000 0 9955705.591 5746375.214 22781234.975 10 0 60777 50400.00000 0 9583791.197 8486379.217 22072466.882 10 0 60777 51300.00000 0 9420957.607 11133165.240 20935439.529 10 0 60777 52200.00000 0 9452999.980 13620108.587 19392136.477 10 0 60777 53100.00000 0 9654332.829 15885592.802 17472426.537 10 0 60777 54000.00000 0 9989188.861 17875360.064 15213493.231 10 0 60777 54900.00000 0 10413261.805 19544566.322 12659121.774 10 0 60777 55800.00000 0 10875724.442 20859455.806 9858856.556 10 0 60777 56700.00000 0 11321536.934 21798585.211 6867044.635 10 0 60777 57600.00000 0 11693948.119 22353546.322 3741783.276 10 0 60777 58500.00000 0 11937083.838 22529156.730 543791.736 10 0 60777 59400.00000 0 11998512.343 22343110.591 -2664770.678 10 0 60777 60300.00000 0 11831677.439 21825104.127 -5821517.023 10 0 60777 61200.00000 0 11398095.321 21015472.814 -8865051.317 10 0 60777 62100.00000 0 10669220.914 19963397.978 -11736168.937 10 0 60777 63000.00000 0 9627903.376 18724758.785 -14379014.647 10 0 60777 63900.00000 0 8269367.844 17359720.716 -16742174.960 10 0 60777 64800.00000 0 6601680.597 15930162.716 -18779682.981 10 0 60777 65700.00000 0 4645676.654 14497051.924 -20451915.779 10 0 60777 66600.00000 0 2434351.685 13117876.919 -21726366.637 10 0 60777 67500.00000 0 11742.647 11844247.725 -22578277.167 10 0 60777 68400.00000 0 -2568656.888 10719763.454 -22991117.251 10 0 60777 69300.00000 0 -5245881.221 9778236.972 -22956903.762 10 0 60777 70200.00000 0 -7953794.649 9042350.648 -22476352.274 10 0 60777 71100.00000 0 -10623615.822 8522798.934 -21558859.177 10 0 60777 72000.00000 0 -13186559.665 8217952.914 -20222314.863 10 0 60777 72900.00000 0 -15576487.332 8114059.912 -18492751.851 10 0 60777 73800.00000 0 -17732454.414 8185968.735 -16403834.827 10 0 60777 74700.00000 0 -19601051.745 8398349.001 -13996202.622 10 0 60777 75600.00000 0 -21138441.914 8707352.213 -11316674.951 10 0 60777 76500.00000 0 -22312007.235 9062643.659 -8417339.413 10 0 60777 77400.00000 0 -23101541.175 9409718.621 -5354536.623 10 0 60777 78300.00000 0 -23499934.366 9692404.419 -2187763.364 10 0 60777 79200.00000 0 -23513327.510 9855441.983 1021484.686 10 0 60777 80100.00000 0 -23160725.846 9847037.424 4210907.884 10 0 60777 81000.00000 0 -22473092.404 9621275.347 7318611.731 10 0 60777 81900.00000 0 -21491959.107 9140291.634 10284306.537 10 0 60777 82800.00000 0 -20267614.839 8376113.639 13050474.231 10 0 60777 83700.00000 0 -18856947.196 7312089.832 15563479.812 10 0 60777 84600.00000 0 -17321028.815 5943848.208 17774606.209 10 0 60777 85500.00000 0 -15722549.604 4279742.602 19640992.935 10 0 60778 0.00000 0 -14123202.419 2340767.535 21126460.891 10 0 60778 900.00000 0 -12581130.307 159943.101 22202208.799 10 0 60778 1800.00000 0 -11148543.626 -2218802.975 22847366.563 10 0 60778 2700.00000 0 -9869603.024 -4742214.279 23049398.141 10 0 60778 3600.00000 0 -8778658.073 -7349678.891 22804344.444 10 0 60778 4500.00000 0 -7898913.521 -9975517.232 22116902.629 10 0 60778 5400.00000 0 -7241578.400 -12551490.828 21000339.932 10 0 60778 6300.00000 0 -6805533.040 -15009429.148 19476243.303 10 0 60778 7200.00000 0 -6577527.637 -17283866.482 17574108.998 10 0 60778 8100.00000 0 -6532903.851 -19314580.127 15330779.214 10 0 60778 9000.00000 0 -6636809.147 -21048924.856 12789735.720 10 0 60778 9900.00000 0 -6845852.820 -22443866.641 10000263.261 10 0 60778 10800.00000 0 -7110133.998 -23467630.809 7016498.201 10 0 60778 11700.00000 0 -7375555.971 -24100895.561 3896380.263 10 0 60778 12600.00000 0 -7586328.847 -24337480.558 700527.520 10 0 60778 13500.00000 0 -7687554.206 -24184501.403 -2508943.472 10 0 60778 14400.00000 0 -7627781.630 -23661983.255 -5669629.136 10 0 60778 15300.00000 0 -7361427.911 -22801949.685 -8720057.718 10 0 60778 16200.00000 0 -6850955.338 -21647025.113 -11600891.112 10 0 60778 17100.00000 0 -6068715.522 -20248609.868 -14256085.466 10 0 60778 18000.00000 0 -4998379.433 -18664704.987 -16633987.222 10 0 60778 18900.00000 0 -3635891.801 -16957478.749 -18688342.663 10 0 60778 19800.00000 0 -1989908.252 -15190677.681 -20379200.922 10 0 60778 20700.00000 0 -81695.521 -13426991.282 -21673692.666 10 0 60778 21600.00000 0 2055502.257 -11725481.326 -22546669.338 10 0 60778 22500.00000 0 4377605.621 -10139183.639 -22981190.756 10 0 60778 23400.00000 0 6831303.254 -8712982.727 -22968851.869 10 0 60778 24300.00000 0 9356050.585 -7481847.798 -22509942.718 10 0 60778 25200.00000 0 11886380.692 -6469503.374 -21613438.860 10 0 60778 26100.00000 0 14354431.633 -5687589.193 -20296822.739 10 0 60778 27000.00000 0 16692585.256 -5135343.485 -18585739.730 10 0 60778 27900.00000 0 18836107.960 -4799821.602 -16513495.681 10 0 60778 28800.00000 0 20725683.639 -4656639.501 -14120405.812 10 0 60778 29700.00000 0 22309733.601 -4671209.489 -11453007.719 10 0 60778 30600.00000 0 23546427.110 -4800414.958 -8563153.811 10 0 60778 31500.00000 0 24405299.066 -4994652.373 -5507000.997 10 0 60778 32400.00000 0 24868407.839 -5200153.368 -2343917.398 10 0 60778 33300.00000 0 24930985.517 -5361488.044 864672.439 10 0 60778 34200.00000 0 24601554.126 -5424142.986 4056481.088 10 0 60778 35100.00000 0 23901503.767 -5337064.525 7169567.144 10 0 60778 36000.00000 0 22864151.175 -5055059.314 10143535.825 10 0 60778 36900.00000 0 21533318.876 -4540950.453 12920707.886 10 0 60778 37800.00000 0 19961495.086 -3767397.842 15447234.264 10 0 60778 38700.00000 0 18207651.783 -2718305.618 17674135.163 10 0 60778 39600.00000 0 16334812.435 -1389756.954 19558243.872 10 0 60778 40500.00000 0 14407470.973 209563.722 21063037.655 10 0 60778 41400.00000 0 12488969.432 2058479.677 22159340.372 10 0 60778 42300.00000 0 10638943.165 4123958.498 22825883.863 10 0 60778 43200.00000 0 8910939.387 6362251.090 23049717.902 10 0 60778 44100.00000 0 7350307.456 8720486.980 22826461.189 10 0 60778 45000.00000 0 5992447.981 11138660.995 22160388.702 10 0 60778 45900.00000 0 4861492.853 13551930.128 21064353.619 10 0 60778 46800.00000 0 3969470.543 15893126.493 19559544.878 10 0 60778 47700.00000 0 3315990.914 18095383.029 17675084.435 10 0 60778 48600.00000 0 2888462.254 20094763.619 15447471.130 10 0 60778 49500.00000 0 2662831.106 21832788.746 12919880.990 10 0 60778 50400.00000 0 2604813.592 23258751.618 10141336.622 10 0 60778 51300.00000 0 2671566.251 24331728.068 7165761.028 10 0 60778 52200.00000 0 2813725.739 25022195.873 4050933.592 10 0 60778 53100.00000 0 2977730.960 25313195.230 857368.315 10 0 60778 54000.00000 0 3108328.984 25200981.133 -2352863.896 10 0 60778 54900.00000 0 3151158.037 24695139.774 -5517345.683 10 0 60778 55800.00000 0 3055297.298 23818163.546 -8574532.252 10 0 60778 56700.00000 0 2775674.457 22604502.280 -11464954.541 10 0 60778 57600.00000 0 2275227.870 21099130.436 -14132382.359 10 0 60778 58500.00000 0 1526730.510 19355690.589 -16524924.074 10 0 60778 59400.00000 0 514197.262 17434291.420 -18596040.850 10 0 60778 60300.00000 0 -766185.187 15399052.980 -20305455.298 10 0 60778 61200.00000 0 -2305646.310 13315502.535 -21619936.608 10 0 60778 62100.00000 0 -4082956.056 11247930.376 -22513946.934 10 0 60778 63000.00000 0 -6065081.341 9256816.392 -22970136.619 10 0 60778 63900.00000 0 -8208348.075 7396434.963 -22979678.977 10 0 60778 64800.00000 0 -10460060.809 5712737.908 -22542438.472 10 0 60778 65700.00000 0 -12760512.942 4241603.309 -21666969.400 10 0 60778 66600.00000 0 -15045303.969 3007522.457 -20370345.442 10 0 60778 67500.00000 0 -17247867.445 2022778.658 -18677823.630 10 0 60778 68400.00000 0 -19302104.502 1287150.851 -16622349.414 10 0 60778 69300.00000 0 -21145013.197 788152.984 -14243912.572 10 0 60778 70200.00000 0 -22719204.209 501797.530 -11588766.518 10 0 60778 71100.00000 0 -23975198.001 393849.514 -8708526.278 10 0 60778 72000.00000 0 -24873407.692 421516.872 -5659162.767 10 0 60778 72900.00000 0 -25385725.014 535504.571 -2499913.099 10 0 60778 73800.00000 0 -25496643.406 682344.724 707871.681 10 0 60778 74700.00000 0 -25203871.627 806903.351 3901918.784 10 0 60778 75600.00000 0 -24518412.765 854957.159 7020242.345 10 0 60778 76500.00000 0 -23464105.850 775730.871 10002344.970 10 0 60778 77400.00000 0 -22076649.806 524287.501 12790388.702 10 0 60778 78300.00000 0 -20402151.065 63670.323 15330312.822 10 0 60778 79200.00000 0 -18495255.860 -633294.136 17572877.083 10 0 60778 80100.00000 0 -16416945.418 -1582608.375 19474610.614 10 0 60778 81000.00000 0 -14232085.945 -2788190.311 20998648.724 10 0 60778 81900.00000 0 -12006835.257 -4241472.839 22115442.125 10 0 60778 82800.00000 0 -9806013.525 -5921534.171 22803325.529 10 0 60778 83700.00000 0 -7690546.816 -7795754.628 23048935.232 10 0 60778 84600.00000 0 -5715088.910 -9820973.730 22847468.050 10 0 60778 85500.00000 0 -3925919.358 -11945100.709 22202776.772 10 0 60779 0.00000 0 -2359204.405 -14109112.587 21127300.296 10 0 60779 900.00000 0 -1039691.466 -16249359.156 19641828.732 10 0 60779 1800.00000 0 20107.158 -18300077.186 17775108.901 10 0 60779 2700.00000 0 820210.743 -20196013.942 15563295.104 10 0 60779 3600.00000 0 1372932.775 -21875048.448 13049256.194 10 0 60779 4500.00000 0 1702121.029 -23280702.530 10281750.962 10 0 60779 5400.00000 0 1841907.230 -24364436.533 7314487.144 10 0 60779 6300.00000 0 1835019.286 -25087633.290 4205081.694 10 0 60779 7200.00000 0 1730727.663 -25423186.634 1013942.285 10 0 60779 8100.00000 0 1582513.163 -25356627.067 -2196908.234 10 0 60779 9000.00000 0 1445555.371 -24886736.532 -5365041.255 10 0 60779 9900.00000 0 1374148.919 -24025625.638 -8428841.587 10 0 60779 10800.00000 0 1419157.946 -22798269.510 -11328711.955 10 0 60779 11700.00000 0 1625617.646 -21241521.235 -14008238.618 10 0 60779 12600.00000 0 2030585.650 -19402644.156 -16415294.640 10 0 60779 13500.00000 0 2661335.322 -17337424.518 -18503058.744 10 0 60779 14400.00000 0 3533968.547 -15107943.731 -20230929.502 10 0 60779 15300.00000 0 4652507.678 -12780103.769 -21565316.822 10 0 60779 16200.00000 0 6008505.975 -10421009.427 -22480295.382 10 0 60779 17100.00000 0 7581193.874 -8096316.947 -22958107.463 10 0 60779 18000.00000 0 9338155.791 -5867659.689 -22989505.709 10 0 60779 18900.00000 0 11236509.735 -3790257.974 -22573929.529 10 0 60779 19800.00000 0 13224540.959 -1910812.233 -21719512.075 10 0 60779 20700.00000 0 15243721.658 -265766.535 -20442917.982 10 0 60779 21600.00000 0 17231032.652 1119986.157 -18769015.270 10 0 60779 22500.00000 0 19121490.189 2233904.307 -16730387.942 10 0 60779 23400.00000 0 20850772.410 3076071.725 -14366698.868 10 0 60779 24300.00000 0 22357835.724 3658935.302 -11723915.414 10 0 60779 25200.00000 0 23587411.762 4006519.231 -8853412.923 10 0 60779 26100.00000 0 24492280.419 4153150.381 -5810973.629 10 0 60779 27000.00000 0 25035223.935 4141749.998 -2655700.625 10 0 60779 27900.00000 0 25190580.288 4021765.107 551131.823 10 0 60779 28800.00000 0 24945330.965 3846828.014 3747268.961 10 0 60779 29700.00000 0 24299677.804 3672243.701 6870683.885 10 0 60779 30600.00000 0 23267084.978 3552411.929 9860779.904 10 0 60779 31500.00000 0 21873784.651 3538293.449 12659563.480 10 0 60779 32400.00000 0 20157767.194 3675027.649 15212765.095 10 0 60779 33300.00000 0 18167298.322 3999802.394 17470886.602 10 0 60779 34200.00000 0 15959025.056 4540066.069 19390155.178 10 0 60779 35100.00000 0 13595749.333 5312157.331 20933366.018 10 0 60779 36000.00000 0 11143961.571 6320410.595 22070598.165 10 0 60779 36900.00000 0 8671236.278 7556775.363 22779790.269 10 0 60779 37800.00000 0 6243597.162 9000966.131 23047165.803 10 0 60779 38700.00000 0 3922960.290 10621137.682 22867499.912 10 0 60779 39600.00000 0 1764760.484 12375058.677 22244222.941 10 0 60779 40500.00000 0 -184141.445 14211735.899 21189358.552 10 0 60779 41400.00000 0 -1887184.706 16073422.687 19723297.217 10 0 60779 42300.00000 0 -3319396.794 17897928.962 17874408.859 10 0 60779 43200.00000 0 -4468191.196 19621137.509 15678501.259 10 0 60779 44100.00000 0 -5333641.865 21179622.177 13178133.797 10 0 60779 45000.00000 0 -5928223.584 22513258.960 10421798.915 10 0 60779 45900.00000 0 -6276029.546 23567720.766 7462986.371 10 0 60779 46800.00000 0 -6411499.524 24296751.032 4359147.847 10 0 60779 47700.00000 0 -6377712.606 24664120.213 1170581.761 10 0 60779 48600.00000 0 -6224317.072 24645182.125 -2040740.045 10 0 60779 49500.00000 0 -6005185.513 24227963.792 -5212380.646 10 0 60779 50400.00000 0 -5775895.118 23413741.925 -8282657.290 10 0 60779 51300.00000 0 -5591140.687 22217080.860 -11191847.163 10 0 60779 52200.00000 0 -5502190.879 20665329.547 -13883355.436 10 0 60779 53100.00000 0 -5554496.450 18797598.077 -16304822.068 10 0 60779 54000.00000 0 -5785552.734 16663256.336 -18409145.244 10 0 60779 54900.00000 0 -6223107.819 14320017.449 -20155401.092 10 0 60779 55800.00000 0 -6883793.046 11831686.230 -21509641.541 10 0 60779 56700.00000 0 -7772234.521 9265666.794 -22445554.783 10 0 60779 57600.00000 0 -8880683.823 6690333.385 -22944975.704 10 0 60779 58500.00000 0 -10189184.147 4172374.053 -22998236.606 10 0 60779 59400.00000 0 -11666265.423 1774217.660 -22604351.804 10 0 60779 60300.00000 0 -13270139.714 -448349.091 -21771032.866 10 0 60779 61200.00000 0 -14950347.088 -2448276.007 -20514534.525 10 0 60779 62100.00000 0 -16649783.234 -4188968.875 -18859334.528 10 0 60779 63000.00000 0 -18307024.058 -5645563.590 -16837653.796 10 0 60779 63900.00000 0 -19858849.918 -6805703.184 -14488826.346 10 0 60779 64800.00000 0 -21242863.785 -7669786.894 -11858531.293 10 0 60779 65700.00000 0 -22400093.555 -8250682.578 -8997901.935 10 0 60779 66600.00000 0 -23277469.345 -8572916.229 -5962529.346 10 0 60779 67500.00000 0 -23830071.797 -8671374.332 -2811380.044 10 0 60779 68400.00000 0 -24023057.011 -8589575.228 394351.075 10 0 60779 69300.00000 0 -23833177.312 -8377583.644 3592429.916 10 0 60779 70200.00000 0 -23249834.041 -8089657.500 6720791.174 10 0 60779 71100.00000 0 -22275618.229 -7781727.177 9718741.496 10 0 60779 72000.00000 0 -20926316.530 -7508814.263 12528134.346 10 0 60779 72900.00000 0 -19230382.146 -7322499.144 15094493.880 10 0 60779 73800.00000 0 -17227892.755 -7268544.457 17368066.337 10 0 60779 74700.00000 0 -14969038.808 -7384774.717 19304778.968 10 0 60779 75600.00000 0 -12512204.861 -7699301.427 20867088.541 10 0 60779 76500.00000 0 -9921723.299 -8229168.491 22024703.726 10 0 60779 77400.00000 0 -7265393.233 -8979475.035 22755168.004 10 0 60779 78300.00000 0 -4611866.735 -9943012.900 23044292.498 10 0 60779 79200.00000 0 -2028009.931 -11100434.683 22886430.764 10 0 60779 80100.00000 0 423652.612 -12420946.138 22284590.429 10 0 60779 81000.00000 0 2687305.238 -13863495.061 21250379.452 10 0 60779 81900.00000 0 4715923.122 -15378408.095 19803787.628 10 0 60779 82800.00000 0 6472983.140 -16909408.163 17972806.942 10 0 60779 83700.00000 0 7933733.408 -18395929.203 15792897.308 10 0 60779 84600.00000 0 9085969.269 -19775632.165 13306307.040 10 0 60779 85500.00000 0 9930283.924 -20987017.425 10561260.396 99